Temp
66 65 66 67 67 67 66 66 66 65 66 68 67 67 67 67 67 66 66 65 66 66 67 65 64 64 65 66 65 65 64 64 63 60 61 61 58 60 62 62 63 65 65 64 64 60 58 56 59 67 68 68 69 70 72 72 73 74 74 74 77 77 73
68 67 68 67 67 67 65 65 65 65 65 66 66 66 66 67 66 66 65 65 64 65 66 65 64 65 64 63 63 62 61 61 61 62 60 58 59 58 59 59 61 61 62 63 63 61 58 56 56 58 60 66 66 67 69 71 72 73 73 74 75 77 76
68 68 68 66 66 66 64 63 63 64 65 63 64 65 65 66 65 65 65 64 63 64 65 64 64 64 63 62 62 61 61 60 61 60 59 58 59 60 59 59 58 59 59 59 58 57 57 58 54 56 58 59 59 62 66 67 70 72 74 74 74 77 77
68 67 66 65 66 65 63 62 63 63 64 63 63 63 64 65 64 65 64 64 63 63 63 63 62 63 62 62 62 62 61 60 59 60 59 59 59 58 59 59 58 59 56 55 55 56 56 54 54 54 57 60 58 57 62 66 66 69 72 73 73 75 75
68 67 65 64 65 64 63 62 63 63 62 62 62 61 61 63 63 62 63 63 62 62 62 62 62 63 63 62 61 61 60 60 60 60 59 57 58 58 58 59 59 60 59 57 57 57 56 55 54 54 54 56 56 58 62 63 66 67 68 70 73 71 72
67 67 65 64 64 63 63 62 62 61 61 60 60 61 61 61 62 61 61 61 61 61 62 62 62 63 62 61 61 60 60 60 59 59 58 57 58 57 57 59 60 60 58 59 58 57 57 56 55 52 54 56 52 54 59 61 60 65 66 68 69 69 70
65 65 64 63 63 62 63 63 62 61 60 60 60 60 61 62 61 61 61 61 62 62 62 62 62 62 62 61 61 60 60 60 60 59 59 58 58 58 58 58 59 58 57 58 58 57 56 55 53 53 52 53 54 53 57 58 61 58 62 66 67 67 68
64 63 62 62 62 62 63 63 62 62 60 60 60 61 62 61 61 61 61 61 61 61 61 61 62 61 61 61 60 60 60 60 59 59 59 58 58 58 58 58 58 57 57 58 58 57 57 56 55 54 52 49 50 52 52 56 57 58 58 62 65 66 66
63 62 61 61 61 62 62 62 61 61 61 60 61 61 61 62 61 61 61 61 61 61 61 61 61 61 60 59 59 59 59 62 59 59 58 58 57 57 57 57 57 56 56 57 57 56 57 56 56 55 53 52 48 45 50 49 51 53 59 58 62 64 63
61 60 60 60 60 62 62 61 60 61 61 61 61 62 61 61 61 61 60 60 60 61 61 61 61 61 60 59 59 59 58 59 59 58 58 57 57 57 57 56 55 55 55 57 56 56 56 55 55 54 54 51 51 47 45 45 47 48 54 57 53 58 61
61 61 61 61 62 61 61 61 61 60 60 62 62 62 61 61 61 62 60 60 60 60 60 61 61 61 60 58 59 59 59 59 58 58 58 57 57 57 57 56 56 55 56 55 55 55 55 54 53 53 53 53 52 48 47 44 45 50 50 54 55 54 58
62 62 63 62 62 61 61 61 61 60 61 61 61 61 61 61 60 60 60 60 60 60 60 60 60 59 59 58 58 58 59 58 57 57 57 58 57 57 56 55 55 54 55 54 54 55 54 53 52 53 53 53 52 51 49 48 43 49 52 49 53 57 56
63 63 62 62 61 61 62 61 61 60 60 61 61 61 61 61 61 60 60 61 60 60 60 59 59 59 58 57 57 57 58 58 58 57 57 58 58 57 56 55 54 54 54 54 53 53 53 53 53 52 52 51 51 51 50 48 45 45 51 51 52 54 57
62 63 62 62 61 61 61 61 61 61 62 60 61 61 61 61 61 61 61 60 60 59 59 58 59 58 58 58 57 58 58 58 58 56 57 56 57 56 56 55 54 54 54 52 51 52 52 52 52 52 52 51 50 51 50 48 46 46 49 53 52 52 54
62 62 61 61 60 61 61 60 60 61 60 61 62 61 62 61 61 60 60 60 59 59 59 59 58 58 57 57 57 58 57 57 56 56 56 56 56 56 55 54 54 53 53 52 51 52 52 51 51 51 51 51 50 50 51 49 47 46 44 49 50 53 52
62 61 61 60 60 61 61 61 62 60 60 60 61 61 61 61 60 60 59 58 58 58 58 58 57 58 57 57 57 56 57 56 56 55 55 55 55 55 54 54 53 53 53 51 51 51 51 50 51 50 50 50 49 50 51 51 48 45 44 45 49 49 51
61 60 60 60 60 60 61 61 62 61 61 60 61 60 61 61 60 59 58 58 57 56 56 56 57 58 58 58 57 57 57 56 56 56 56 55 55 55 54 53 52 52 52 50 50 50 50 50 50 49 49 49 49 50 50 50 50 47 46 44 48 49 50
59 59 59 59 59 60 60 61 61 61 61 60 61 61 61 61 59 58 56 56 55 54 54 54 54 55 57 57 57 57 57 57 56 56 55 55 56 54 54 53 53 52 51 49 49 49 49 48 49 49 48 49 49 49 49 49 49 49 47 45 47 50 51
59 59 59 59 59 60 60 61 61 61 62 60 60 60 59 59 59 57 57 56 55 54 53 52 52 53 54 57 57 56 56 56 56 56 55 55 55 55 54 54 53 52 51 49 49 49 48 48 48 47 47 47 48 49 48 49 49 48 48 47 47 47 50
59 59 59 59 60 60 60 60 61 61 61 60 59 59 58 57 57 56 55 54 53 52 51 50 50 50 52 53 54 57 55 55 55 54 55 56 56 55 55 54 53 52 51 50 49 48 47 47 47 46 47 47 48 48 47 48 48 47 47 47 47 48 47
59 60 60 60 60 59 60 59 60 60 61 60 59 59 58 57 56 56 54 53 53 52 51 49 48 48 49 51 51 55 56 54 55 55 55 55 55 55 54 54 53 53 52 51 48 47 47 46 46 45 46 47 47 47 46 47 47 47 46 46 45 45 47
60 60 60 60 59 59 59 59 59 59 59 59 59 59 59 58 56 55 54 53 52 51 49 47 45 44 45 47 50 51 54 56 55 54 54 54 55 54 54 54 54 53 54 53 49 49 48 48 46 44 45 45 45 45 46 46 46 46 46 45 45 46 45
60 59 59 59 59 59 59 59 59 59 59 59 59 59 58 57 56 55 53 52 51 49 48 47 44 42 43 44 46 50 51 55 55 54 54 53 53 53 53 53 54 56 54 52 49 47 46 46 47 46 45 45 44 44 45 46 46 46 45 44 44 44 43
60 59 59 59 59 59 59 59 58 58 58 58 57 57 57 56 55 54 53 52 50 49 48 45 42 40 41 41 45 47 49 53 54 54 54 53 52 52 52 53 52 54 54 52 50 47 46 45 45 45 45 46 46 44 44 45 45 45 44 43 44 44 43
59 59 59 59 59 59 59 58 57 57 56 56 56 57 56 55 54 53 53 52 50 49 47 43 40 41 41 41 42 44 49 54 54 53 53 53 53 53 52 52 52 52 52 51 49 48 48 47 45 45 44 45 44 44 45 45 44 44 44 43 43 43 43
60 59 59 59 59 59 58 58 57 56 56 56 56 56 56 55 54 53 52 51 49 48 47 42 41 41 41 41 41 43 50 54 54 54 53 53 53 53 51 51 51 51 51 53 50 48 47 47 46 46 46 47 48 48 45 43 44 47 46 45 44 44 44
59 59 59 59 59 58 57 56 56 56 56 55 55 55 55 54 54 54 53 51 49 48 46 42 41 41 41 41 41 42 50 55 55 55 54 54 54 52 51 50 50 50 50 50 48 46 46 45 45 46 47 48 49 50 48 47 46 46 47 47 45 43 46
59 59 59 59 58 57 56 56 56 56 56 55 54 54 54 53 54 54 53 52 50 48 46 41 41 41 41 41 41 45 53 56 55 54 54 54 54 53 52 52 50 49 49 48 48 45 44 43 44 45 47 47 48 49 50 50 50 49 48 48 47 47 47
59 59 58 58 57 56 56 56 55 55 55 55 55 54 54 54 54 54 53 52 50 48 46 41 41 41 41 41 43 50 54 54 54 54 53 53 54 53 52 51 49 48 47 48 47 43 43 43 44 45 45 46 47 48 50 51 48 47 48 48 48 48 47
58 58 58 57 56 56 55 55 55 56 55 54 54 53 53 53 54 53 53 53 50 48 47 42 41 41 41 41 44 49 52 53 53 53 53 53 54 53 51 51 50 48 48 48 46 41 42 43 44 45 45 45 46 47 48 50 49 47 46 45 45 43 42
58 58 57 57 56 55 56 56 56 56 55 54 53 54 54 53 53 53 52 52 52 48 46 44 41 41 42 41 44 48 52 51 51 51 51 53 54 52 49 52 52 48 48 48 44 41 42 43 44 44 44 44 44 45 47 49 50 50 48 47 45 44 45
59 58 57 56 56 56 56 56 56 56 56 56 55 55 55 53 52 52 52 51 53 51 48 46 42 41 41 41 44 47 51 50 48 48 49 50 52 53 51 49 47 47 48 46 42 42 41 43 43 44 44 43 43 45 47 48 47 46 47 47 48 50 48
58 58 57 56 56 56 56 56 56 56 55 57 56 56 56 55 53 52 52 52 52 52 50 48 46 43 42 41 41 45 50 48 46 47 48 50 51 51 51 52 50 45 44 43 43 42 42 41 42 43 43 43 44 44 48 47 47 46 46 48 49 49 48
57 57 58 57 57 56 57 56 56 56 56 56 55 54 54 53 53 53 53 53 52 52 52 50 46 42 44 42 41 41 48 48 47 47 47 49 49 49 50 51 51 48 44 43 43 42 42 41 41 42 43 44 46 47 44 44 45 47 48 49 49 48 47
58 57 58 57 56 56 56 57 56 56 55 54 54 53 54 54 53 53 53 54 54 52 51 51 50 44 44 43 42 39 45 48 47 46 47 48 48 49 50 50 49 48 44 43 42 42 41 41 41 42 45 43 42 41 44 45 47 49 49 48 48 47 45
57 57 57 57 56 55 56 56 56 55 55 54 54 53 54 54 53 53 53 54 54 53 51 50 47 49 45 44 42 41 40 42 42 45 46 46 47 49 49 49 50 48 43 42 42 41 41 40 42 46 43 41 42 42 43 49 49 48 47 47 46 45 44
57 57 57 56 56 55 55 55 55 55 55 54 54 53 53 54 53 53 53 53 54 53 52 50 47 46 49 44 42 42 41 40 39 44 46 46 48 49 48 48 47 43 41 41 41 41 40 41 45 43 42 42 42 45 49 49 48 47 46 46 45 44 43
MSLP
1021.16 1021.36 1021.32 1021.40 1021.32 1021.36 1021.44 1021.48 1021.40 1021.32 1021.16 1021.00 1021.04 1021.04 1021.04 1021.00 1020.88 1020.76 1020.64 1020.60 1020.48 1020.28 1020.20 1020.40 1020.44 1020.28 1020.12 1020.20 1020.24 1020.40 1020.48 1020.52 1020.76 1020.88 1020.80 1020.84 1020.88 1020.56 1020.24 1020.04 1019.80 1019.56 1019.40 1019.36 1019.28 1019.76 1019.72 1019.52 1017.92 1016.76 1016.80 1016.84 1016.56 1016.36 1015.96 1015.84 1015.56 1015.20 1015.00 1014.64 1014.20 1013.96 1013.84
1020.96 1021.16 1021.28 1021.40 1021.52 1021.48 1021.60 1021.60 1021.60 1021.56 1021.44 1021.40 1021.48 1021.48 1021.40 1021.32 1021.20 1021.04 1020.92 1020.88 1020.80 1020.68 1020.60 1020.68 1020.60 1020.48 1020.56 1020.64 1020.64 1020.80 1020.88 1020.92 1020.92 1021.00 1021.20 1021.28 1021.08 1021.00 1020.68 1020.44 1020.16 1020.00 1019.68 1019.44 1019.56 1019.76 1020.04 1019.88 1019.16 1018.72 1017.84 1016.76 1016.64 1016.52 1016.36 1016.12 1015.76 1015.44 1015.20 1014.88 1014.48 1014.08 1013.72
1020.96 1021.08 1021.20 1021.44 1021.48 1021.52 1021.76 1021.84 1021.88 1021.72 1021.60 1021.80 1021.88 1021.84 1021.68 1021.56 1021.48 1021.28 1021.16 1021.16 1021.12 1021.00 1020.92 1020.96 1020.84 1020.80 1020.92 1020.96 1021.00 1021.12 1021.24 1021.28 1021.24 1021.36 1021.52 1021.60 1021.40 1021.28 1021.12 1020.96 1020.68 1020.32 1020.20 1020.20 1020.32 1020.36 1020.12 1019.96 1020.28 1019.56 1018.92 1018.52 1017.92 1016.96 1016.76 1016.52 1016.24 1015.84 1015.28 1014.88 1014.60 1014.28 1014.00
1020.92 1021.04 1021.28 1021.36 1021.36 1021.56 1021.80 1022.00 1022.04 1021.96 1021.92 1022.12 1022.16 1022.12 1021.92 1021.76 1021.68 1021.52 1021.40 1021.40 1021.32 1021.24 1021.20 1021.20 1021.20 1021.12 1021.20 1021.28 1021.28 1021.32 1021.44 1021.56 1021.56 1021.64 1021.68 1021.72 1021.64 1021.56 1021.36 1021.20 1021.08 1021.08 1021.28 1021.32 1021.24 1020.96 1020.88 1020.68 1020.36 1019.92 1019.48 1019.08 1019.08 1018.44 1017.40 1017.16 1016.92 1016.36 1015.76 1015.40 1015.00 1014.64 1014.72
1020.76 1020.96 1021.20 1021.32 1021.40 1021.56 1021.80 1022.04 1022.08 1022.08 1022.28 1022.32 1022.36 1022.32 1022.20 1022.00 1021.92 1021.84 1021.72 1021.64 1021.56 1021.52 1021.48 1021.48 1021.44 1021.36 1021.40 1021.48 1021.48 1021.52 1021.64 1021.72 1021.72 1021.76 1021.92 1021.96 1021.84 1021.76 1021.64 1021.40 1021.24 1021.24 1021.32 1021.40 1021.32 1021.28 1021.28 1021.24 1021.12 1020.72 1020.20 1019.72 1019.28 1018.96 1018.28 1017.68 1017.24 1016.80 1016.48 1016.04 1015.52 1015.48 1015.28
1020.80 1020.96 1021.24 1021.44 1021.60 1021.80 1021.96 1022.20 1022.20 1022.40 1022.60 1022.68 1022.64 1022.52 1022.40 1022.28 1022.16 1022.08 1022.00 1021.92 1021.88 1021.80 1021.76 1021.68 1021.68 1021.56 1021.56 1021.68 1021.72 1021.76 1021.84 1021.92 1021.96 1022.00 1022.12 1022.16 1022.04 1022.04 1021.96 1021.64 1021.40 1021.52 1021.64 1021.60 1021.40 1021.48 1021.40 1021.36 1021.32 1021.24 1020.72 1020.48 1020.20 1019.16 1018.44 1018.28 1017.68 1017.16 1016.92 1016.44 1016.28 1016.04 1015.76
1021.12 1021.20 1021.44 1021.76 1022.00 1022.20 1022.36 1022.40 1022.48 1022.72 1022.84 1022.84 1022.80 1022.68 1022.52 1022.40 1022.36 1022.28 1022.24 1022.20 1022.12 1022.04 1021.96 1021.88 1021.88 1021.80 1021.80 1021.88 1021.96 1022.04 1022.08 1022.16 1022.16 1022.16 1022.20 1022.20 1022.20 1022.20 1022.08 1021.96 1021.80 1022.04 1022.08 1021.96 1021.88 1021.88 1021.76 1021.60 1021.56 1021.40 1021.08 1020.56 1020.28 1019.72 1018.92 1018.48 1018.12 1017.72 1016.92 1016.96 1016.80 1016.52 1016.20
1021.52 1021.72 1021.96 1022.20 1022.44 1022.60 1022.52 1022.56 1022.72 1022.84 1022.92 1022.92 1022.88 1022.80 1022.60 1022.56 1022.52 1022.52 1022.48 1022.40 1022.36 1022.28 1022.16 1022.12 1022.04 1022.04 1022.08 1022.20 1022.24 1022.24 1022.24 1022.24 1022.36 1022.36 1022.40 1022.40 1022.40 1022.40 1022.36 1022.32 1022.24 1022.44 1022.52 1022.40 1022.32 1022.32 1022.08 1021.96 1021.92 1021.68 1021.52 1021.16 1020.28 1020.08 1019.76 1019.08 1018.64 1018.48 1018.12 1017.44 1017.16 1016.84 1016.64
1022.00 1022.28 1022.52 1022.72 1022.88 1022.80 1022.72 1022.80 1022.92 1022.96 1022.96 1022.96 1022.92 1022.88 1022.84 1022.72 1022.68 1022.68 1022.64 1022.64 1022.56 1022.48 1022.36 1022.28 1022.28 1022.32 1022.40 1022.48 1022.56 1022.52 1022.52 1022.44 1022.52 1022.60 1022.64 1022.64 1022.68 1022.64 1022.68 1022.80 1022.72 1022.96 1022.92 1022.72 1022.68 1022.68 1022.52 1022.44 1022.40 1022.32 1022.12 1021.88 1021.76 1021.04 1020.12 1019.80 1019.36 1018.88 1018.52 1018.04 1017.48 1017.52 1017.32
1022.48 1022.76 1022.96 1023.12 1023.08 1022.84 1022.84 1022.96 1023.00 1023.00 1022.96 1022.96 1022.96 1022.92 1022.92 1022.84 1022.80 1022.80 1022.84 1022.84 1022.80 1022.68 1022.60 1022.56 1022.56 1022.60 1022.64 1022.72 1022.76 1022.76 1022.72 1022.64 1022.68 1022.88 1022.88 1023.00 1023.00 1022.88 1022.96 1023.12 1023.20 1023.28 1023.24 1023.04 1023.12 1023.04 1023.00 1022.92 1023.00 1022.92 1022.76 1022.64 1022.32 1022.16 1021.56 1021.04 1020.36 1019.76 1018.84 1018.92 1018.76 1017.72 1017.88
1022.68 1022.88 1023.00 1023.00 1022.92 1022.92 1022.96 1022.96 1022.96 1023.00 1023.00 1022.96 1022.96 1022.96 1022.96 1022.96 1022.96 1022.96 1023.00 1023.00 1023.00 1022.92 1022.88 1022.88 1022.88 1022.96 1022.96 1023.00 1022.96 1023.00 1022.92 1022.92 1022.96 1023.04 1023.16 1023.24 1023.24 1023.16 1023.20 1023.40 1023.48 1023.56 1023.52 1023.36 1023.44 1023.32 1023.24 1023.32 1023.36 1023.20 1023.00 1022.80 1022.64 1022.68 1022.40 1022.24 1021.36 1020.60 1019.76 1019.40 1019.44 1018.80 1018.00
1022.48 1022.56 1022.64 1022.72 1022.80 1022.92 1023.00 1023.04 1023.04 1023.08 1023.08 1023.08 1023.08 1023.08 1023.12 1023.16 1023.20 1023.16 1023.16 1023.16 1023.16 1023.20 1023.20 1023.20 1023.20 1023.24 1023.32 1023.36 1023.32 1023.28 1023.20 1023.20 1023.28 1023.32 1023.40 1023.44 1023.48 1023.48 1023.52 1023.72 1023.80 1023.92 1023.84 1023.80 1023.84 1023.64 1023.72 1023.80 1023.72 1023.52 1023.16 1023.00 1022.84 1022.72 1022.60 1022.40 1022.12 1020.72 1020.68 1020.12 1019.48 1019.20 1018.84
1022.36 1022.52 1022.64 1022.76 1022.88 1022.92 1023.00 1023.08 1023.12 1023.16 1023.24 1023.24 1023.24 1023.28 1023.28 1023.32 1023.32 1023.36 1023.32 1023.32 1023.40 1023.44 1023.52 1023.52 1023.48 1023.52 1023.56 1023.64 1023.64 1023.60 1023.52 1023.48 1023.60 1023.60 1023.64 1023.64 1023.68 1023.72 1023.80 1023.96 1024.16 1024.24 1024.24 1024.28 1024.40 1024.24 1024.20 1024.08 1023.88 1023.68 1023.44 1023.28 1023.12 1022.84 1022.72 1022.48 1022.36 1021.60 1020.80 1020.44 1020.00 1019.40 1019.04
1022.36 1022.48 1022.64 1022.76 1022.88 1023.00 1023.08 1023.12 1023.20 1023.24 1023.32 1023.40 1023.44 1023.48 1023.48 1023.52 1023.52 1023.52 1023.56 1023.64 1023.64 1023.76 1023.80 1023.84 1023.80 1023.80 1023.80 1023.84 1023.88 1023.88 1023.84 1023.84 1023.88 1023.96 1023.88 1023.92 1023.92 1024.00 1024.12 1024.32 1024.48 1024.64 1024.60 1024.72 1024.72 1024.52 1024.40 1024.32 1024.08 1023.84 1023.56 1023.40 1023.20 1022.96 1022.76 1022.56 1022.24 1021.52 1020.88 1020.60 1020.32 1019.92 1019.36
1022.48 1022.64 1022.80 1022.88 1023.00 1023.12 1023.24 1023.32 1023.40 1023.44 1023.52 1023.56 1023.60 1023.64 1023.64 1023.64 1023.68 1023.80 1023.88 1023.96 1024.04 1024.08 1024.12 1024.16 1024.12 1024.12 1024.12 1024.12 1024.16 1024.12 1024.16 1024.16 1024.20 1024.12 1024.16 1024.20 1024.32 1024.32 1024.40 1024.52 1024.68 1024.80 1024.80 1024.80 1024.84 1024.72 1024.60 1024.44 1024.24 1023.96 1023.76 1023.56 1023.36 1023.04 1022.76 1022.60 1022.32 1022.08 1021.44 1020.92 1020.44 1020.16 1019.72
1022.56 1022.72 1022.84 1022.96 1023.08 1023.20 1023.32 1023.40 1023.52 1023.64 1023.72 1023.72 1023.72 1023.76 1023.88 1023.92 1023.96 1024.04 1024.20 1024.32 1024.44 1024.52 1024.52 1024.52 1024.44 1024.40 1024.36 1024.36 1024.36 1024.36 1024.32 1024.36 1024.36 1024.36 1024.36 1024.56 1024.60 1024.56 1024.56 1024.64 1024.84 1024.88 1024.84 1024.96 1024.92 1024.80 1024.64 1024.56 1024.40 1024.24 1024.00 1023.72 1023.44 1023.16 1022.84 1022.76 1022.68 1022.44 1022.04 1021.44 1020.96 1020.28 1019.80
1022.60 1022.80 1022.96 1023.08 1023.24 1023.32 1023.40 1023.48 1023.56 1023.68 1023.80 1023.84 1023.88 1023.96 1024.00 1024.16 1024.32 1024.44 1024.56 1024.72 1024.88 1025.00 1025.04 1025.00 1024.84 1024.64 1024.60 1024.60 1024.64 1024.56 1024.52 1024.52 1024.52 1024.52 1024.68 1024.72 1024.76 1024.72 1024.76 1024.76 1024.96 1025.00 1025.08 1025.20 1025.12 1024.96 1024.80 1024.72 1024.60 1024.44 1024.16 1023.84 1023.60 1023.32 1023.12 1023.00 1022.80 1022.56 1022.04 1021.64 1020.84 1020.52 1019.80
1022.76 1022.92 1023.12 1023.24 1023.36 1023.44 1023.56 1023.68 1023.76 1023.84 1023.92 1024.00 1024.04 1024.08 1024.20 1024.40 1024.68 1024.88 1025.04 1025.20 1025.36 1025.56 1025.64 1025.60 1025.48 1025.20 1024.84 1024.76 1024.80 1024.76 1024.76 1024.76 1024.84 1024.84 1024.92 1024.96 1024.88 1024.92 1024.80 1024.84 1025.08 1025.16 1025.20 1025.32 1025.24 1025.12 1025.00 1024.96 1024.80 1024.60 1024.40 1024.04 1023.76 1023.52 1023.36 1023.12 1022.80 1022.48 1022.08 1021.60 1020.84 1020.40 1019.96
1022.88 1023.04 1023.20 1023.36 1023.48 1023.60 1023.68 1023.76 1023.88 1023.96 1024.08 1024.24 1024.36 1024.52 1024.68 1024.84 1025.00 1025.24 1025.40 1025.60 1025.80 1025.96 1026.08 1026.12 1026.04 1025.88 1025.52 1025.08 1024.92 1025.00 1024.96 1025.00 1025.04 1025.08 1025.00 1025.00 1025.00 1025.04 1025.00 1024.88 1025.12 1025.24 1025.32 1025.40 1025.32 1025.24 1025.24 1025.16 1025.00 1024.84 1024.60 1024.36 1024.04 1023.76 1023.40 1023.04 1022.76 1022.44 1022.08 1021.64 1021.12 1020.32 1019.96
1022.92 1023.08 1023.24 1023.40 1023.52 1023.68 1023.76 1023.88 1023.96 1024.08 1024.16 1024.32 1024.52 1024.72 1024.96 1025.24 1025.40 1025.60 1025.84 1026.04 1026.20 1026.36 1026.48 1026.60 1026.60 1026.44 1026.12 1025.84 1025.56 1025.12 1025.16 1025.08 1025.08 1025.04 1024.96 1025.00 1025.08 1025.08 1025.12 1025.08 1025.20 1025.28 1025.40 1025.36 1025.40 1025.56 1025.52 1025.40 1025.20 1025.00 1024.76 1024.48 1024.08 1023.76 1023.44 1023.12 1022.76 1022.40 1022.08 1021.68 1021.16 1020.72 1020.08
1022.96 1023.12 1023.24 1023.44 1023.68 1023.84 1024.00 1024.12 1024.24 1024.28 1024.36 1024.48 1024.64 1024.84 1025.16 1025.48 1025.72 1025.92 1026.20 1026.36 1026.56 1026.68 1026.80 1026.96 1027.04 1026.96 1026.68 1026.36 1026.12 1025.48 1025.20 1025.20 1025.12 1025.08 1025.04 1025.08 1025.20 1025.24 1025.28 1025.24 1025.24 1025.32 1025.44 1025.44 1025.72 1025.72 1025.60 1025.56 1025.32 1025.12 1024.80 1024.44 1024.12 1023.80 1023.44 1023.08 1022.68 1022.36 1022.04 1021.64 1021.20 1020.60 1020.16
1023.00 1023.20 1023.36 1023.56 1023.76 1023.96 1024.12 1024.28 1024.44 1024.56 1024.68 1024.76 1024.80 1024.96 1025.20 1025.56 1025.88 1026.20 1026.48 1026.68 1026.84 1027.00 1027.12 1027.32 1027.56 1027.60 1027.24 1026.88 1026.44 1026.08 1025.52 1025.24 1025.16 1025.20 1025.16 1025.20 1025.32 1025.44 1025.48 1025.40 1025.32 1025.40 1025.40 1025.52 1025.76 1025.64 1025.64 1025.56 1025.44 1025.24 1024.80 1024.48 1024.16 1023.84 1023.44 1023.08 1022.68 1022.28 1021.88 1021.60 1021.20 1020.84 1020.52
1023.04 1023.28 1023.52 1023.72 1023.92 1024.04 1024.20 1024.36 1024.52 1024.68 1024.84 1025.00 1025.12 1025.24 1025.52 1025.80 1026.08 1026.40 1026.68 1026.92 1027.12 1027.28 1027.44 1027.60 1027.76 1027.68 1027.68 1027.44 1026.92 1026.36 1026.04 1025.32 1025.28 1025.28 1025.20 1025.24 1025.36 1025.48 1025.56 1025.60 1025.56 1025.40 1025.44 1025.52 1025.60 1025.68 1025.64 1025.48 1025.32 1025.12 1024.80 1024.44 1024.12 1023.84 1023.48 1022.96 1022.56 1022.24 1021.96 1021.68 1021.36 1021.00 1020.60
1023.08 1023.28 1023.52 1023.76 1023.92 1024.08 1024.32 1024.48 1024.72 1024.96 1025.12 1025.24 1025.36 1025.56 1025.80 1026.08 1026.36 1026.60 1026.84 1027.04 1027.24 1027.44 1027.60 1027.88 1027.76 1027.48 1027.32 1027.28 1027.08 1026.64 1026.28 1025.52 1025.32 1025.28 1025.28 1025.24 1025.36 1025.44 1025.52 1025.60 1025.64 1025.56 1025.52 1025.52 1025.68 1025.68 1025.64 1025.40 1025.20 1024.88 1024.48 1024.12 1023.80 1023.68 1023.28 1022.80 1022.48 1022.32 1022.12 1021.88 1021.48 1021.12 1020.80
1023.08 1023.32 1023.48 1023.76 1023.96 1024.20 1024.40 1024.68 1024.92 1025.12 1025.32 1025.48 1025.64 1025.72 1025.96 1026.24 1026.48 1026.72 1026.92 1027.12 1027.36 1027.56 1027.76 1028.00 1027.76 1027.52 1027.28 1026.96 1027.00 1026.88 1026.24 1025.48 1025.36 1025.40 1025.40 1025.24 1025.20 1025.32 1025.56 1025.60 1025.64 1025.60 1025.64 1025.56 1025.68 1025.72 1025.60 1025.36 1025.12 1024.76 1024.36 1023.84 1023.40 1023.04 1022.84 1022.64 1022.60 1022.36 1022.16 1021.96 1021.60 1021.20 1020.76
1023.00 1023.20 1023.48 1023.72 1024.00 1024.20 1024.52 1024.76 1025.00 1025.24 1025.48 1025.60 1025.72 1025.84 1025.96 1026.20 1026.52 1026.72 1026.96 1027.24 1027.52 1027.76 1027.88 1028.00 1027.80 1027.60 1027.32 1027.12 1026.72 1026.64 1026.20 1025.52 1025.44 1025.40 1025.36 1025.28 1025.24 1025.44 1025.64 1025.68 1025.72 1025.68 1025.72 1025.56 1025.76 1025.84 1025.68 1025.44 1025.08 1024.76 1024.24 1023.76 1023.24 1022.80 1022.56 1022.40 1022.36 1022.16 1021.96 1021.72 1021.44 1020.96 1020.64
1022.96 1023.28 1023.52 1023.80 1024.04 1024.32 1024.64 1024.96 1025.20 1025.40 1025.60 1025.76 1025.92 1026.04 1026.12 1026.28 1026.44 1026.68 1026.96 1027.28 1027.60 1027.84 1028.00 1028.04 1027.80 1027.60 1027.40 1027.08 1026.76 1026.44 1026.04 1025.48 1025.40 1025.28 1025.36 1025.36 1025.24 1025.52 1025.60 1025.72 1025.72 1025.68 1025.72 1025.68 1025.92 1025.92 1025.80 1025.56 1025.20 1024.72 1024.20 1023.80 1023.40 1022.88 1022.48 1022.20 1021.96 1021.72 1021.60 1021.48 1021.20 1020.84 1020.32
1023.04 1023.32 1023.56 1023.84 1024.16 1024.52 1024.84 1025.04 1025.16 1025.36 1025.56 1025.80 1026.00 1026.20 1026.32 1026.40 1026.48 1026.64 1026.96 1027.28 1027.60 1027.88 1028.08 1028.04 1027.76 1027.64 1027.44 1027.08 1026.76 1026.24 1025.72 1025.40 1025.36 1025.28 1025.36 1025.40 1025.28 1025.44 1025.52 1025.60 1025.64 1025.80 1025.92 1025.88 1025.96 1025.92 1025.80 1025.64 1025.24 1024.68 1024.16 1023.76 1023.44 1022.92 1022.36 1022.00 1021.68 1021.44 1021.20 1021.04 1020.80 1020.52 1020.20
1023.00 1023.32 1023.64 1024.00 1024.32 1024.60 1024.80 1025.00 1025.24 1025.40 1025.64 1025.88 1026.08 1026.20 1026.36 1026.44 1026.56 1026.68 1026.92 1027.24 1027.60 1027.92 1028.12 1028.00 1027.84 1027.72 1027.56 1027.28 1026.96 1026.52 1025.84 1025.68 1025.56 1025.48 1025.40 1025.48 1025.32 1025.40 1025.52 1025.64 1025.76 1025.92 1025.96 1025.88 1025.84 1025.76 1025.64 1025.52 1025.08 1024.56 1024.12 1023.72 1023.32 1022.80 1022.28 1021.84 1021.48 1021.16 1020.92 1020.60 1020.36 1020.12 1019.92
1023.04 1023.40 1023.76 1024.08 1024.40 1024.68 1024.88 1025.12 1025.28 1025.44 1025.72 1025.92 1026.16 1026.36 1026.52 1026.68 1026.72 1026.80 1026.92 1027.16 1027.60 1027.96 1028.16 1028.16 1027.96 1027.84 1027.68 1027.60 1027.32 1026.92 1026.24 1026.04 1025.96 1025.88 1025.76 1025.52 1025.36 1025.44 1025.60 1025.72 1025.76 1025.92 1025.84 1025.72 1025.68 1025.56 1025.36 1025.24 1024.92 1024.48 1024.08 1023.68 1023.20 1022.72 1022.04 1021.52 1021.16 1020.84 1020.52 1020.24 1019.92 1019.72 1019.56
1023.08 1023.44 1023.80 1024.16 1024.48 1024.72 1024.88 1025.04 1025.28 1025.44 1025.76 1026.00 1026.20 1026.40 1026.60 1026.84 1027.04 1027.12 1027.20 1027.28 1027.44 1027.96 1028.24 1028.20 1028.04 1027.92 1027.84 1027.72 1027.64 1027.28 1026.64 1026.52 1026.52 1026.36 1026.20 1025.84 1025.44 1025.56 1025.72 1025.72 1025.80 1025.76 1025.64 1025.60 1025.48 1025.36 1025.12 1025.04 1024.84 1024.48 1024.04 1023.68 1023.20 1022.52 1021.80 1021.28 1020.92 1020.56 1020.24 1019.88 1019.56 1019.28 1018.96
1023.12 1023.44 1023.84 1024.24 1024.44 1024.68 1024.84 1025.00 1025.20 1025.36 1025.60 1025.80 1026.04 1026.20 1026.44 1026.80 1027.12 1027.28 1027.36 1027.44 1027.36 1027.68 1028.04 1028.16 1028.08 1028.04 1028.00 1027.92 1027.80 1027.60 1027.04 1027.08 1027.00 1026.96 1026.68 1026.32 1025.72 1025.40 1025.68 1025.84 1025.68 1025.48 1025.48 1025.44 1025.28 1025.16 1025.00 1024.88 1024.80 1024.40 1024.08 1023.72 1023.20 1022.44 1021.68 1021.16 1020.84 1020.52 1020.00 1019.64 1019.24 1018.88 1018.60
1023.16 1023.52 1023.96 1024.28 1024.48 1024.64 1024.84 1025.04 1025.24 1025.40 1025.52 1025.60 1025.76 1026.00 1026.24 1026.52 1026.84 1027.12 1027.28 1027.36 1027.44 1027.48 1027.76 1028.08 1028.08 1028.04 1028.04 1028.00 1028.00 1027.88 1027.40 1027.44 1027.44 1027.28 1026.96 1026.56 1026.08 1025.72 1025.60 1025.48 1025.44 1025.40 1025.32 1025.24 1025.16 1025.04 1024.88 1024.64 1024.56 1024.32 1024.00 1023.68 1023.00 1022.24 1021.44 1021.24 1020.96 1020.52 1020.00 1019.48 1018.96 1018.72 1018.48
1023.36 1023.72 1024.04 1024.28 1024.52 1024.72 1024.84 1025.04 1025.12 1025.20 1025.32 1025.48 1025.80 1026.12 1026.36 1026.52 1026.64 1026.84 1026.96 1027.16 1027.32 1027.48 1027.56 1027.84 1028.04 1028.00 1028.00 1028.00 1028.00 1027.96 1027.72 1027.56 1027.56 1027.48 1027.16 1026.76 1026.52 1026.16 1025.84 1025.76 1025.64 1025.44 1025.28 1025.20 1025.12 1024.96 1024.76 1024.44 1024.20 1024.12 1023.80 1023.36 1022.72 1022.04 1021.68 1021.44 1020.84 1020.28 1019.72 1019.28 1018.84 1018.56 1018.36
1023.52 1023.80 1024.08 1024.32 1024.56 1024.76 1024.96 1025.00 1025.08 1025.16 1025.48 1025.80 1026.04 1026.24 1026.28 1026.36 1026.48 1026.64 1026.72 1026.76 1026.96 1027.36 1027.64 1027.64 1027.88 1027.96 1027.92 1027.92 1027.88 1027.92 1027.88 1027.68 1027.64 1027.60 1027.28 1027.00 1026.72 1026.28 1026.04 1025.92 1025.80 1025.52 1025.36 1025.24 1025.04 1024.88 1024.60 1024.28 1023.92 1023.92 1023.32 1022.80 1022.40 1021.92 1021.56 1021.32 1020.68 1020.04 1019.64 1019.20 1018.80 1018.56 1018.32
1023.64 1023.88 1024.16 1024.36 1024.56 1024.88 1025.00 1025.08 1025.16 1025.36 1025.68 1025.88 1026.00 1026.04 1026.04 1026.12 1026.24 1026.32 1026.44 1026.52 1026.60 1027.16 1027.52 1027.68 1027.72 1027.76 1027.80 1027.80 1027.76 1027.72 1027.76 1027.76 1027.60 1027.60 1027.32 1027.16 1026.76 1026.36 1026.20 1026.08 1025.84 1025.64 1025.48 1025.24 1025.00 1024.72 1024.40 1024.04 1023.80 1023.40 1022.96 1022.68 1022.28 1021.76 1021.44 1020.88 1020.44 1020.12 1019.68 1019.32 1018.92 1018.64 1018.28
1023.72 1023.96 1024.16 1024.36 1024.64 1024.88 1025.04 1025.16 1025.32 1025.52 1025.64 1025.76 1025.88 1025.96 1025.96 1025.96 1026.00 1026.08 1026.20 1026.32 1026.44 1026.92 1027.40 1027.64 1027.72 1027.60 1027.64 1027.64 1027.64 1027.60 1027.56 1027.56 1027.56 1027.44 1027.40 1027.12 1026.64 1026.52 1026.44 1026.20 1025.96 1025.72 1025.48 1025.16 1024.76 1024.44 1024.16 1023.84 1023.48 1023.08 1022.84 1022.48 1022.08 1021.56 1021.12 1020.80 1020.44 1020.16 1019.88 1019.48 1019.12 1018.64 1018.24
Wind_Speed
4 4 5 4 4 3 4 5 5 5 6 6 6 7 6 7 6 6 6 6 6 6 7 7 6 5 5 8 7 8 6 7 7 5 6 8 8 7 8 7 7 5 6 5 5 7 7 9 13 10 6 9 11 10 10 12 13 12 11 10 7 5 5
4 4 4 4 3 3 4 5 6 4 3 6 7 6 5 6 6 5 6 6 6 6 6 6 5 6 9 8 8 8 7 6 5 7 6 6 6 7 8 7 6 6 5 4 8 9 7 9 9 10 13 12 8 4 8 9 9 10 11 11 11 10 8
4 4 4 4 4 4 6 6 4 2 4 6 5 5 5 6 6 6 6 7 6 6 6 6 6 7 8 7 8 7 8 7 6 7 7 6 5 7 7 6 7 8 8 8 8 9 7 5 8 11 11 12 13 12 9 9 13 12 10 9 9 11 8
4 5 5 5 5 5 6 5 3 3 4 4 4 4 5 6 6 6 6 7 6 6 6 7 6 7 7 6 6 7 8 7 6 6 6 6 5 6 6 6 7 8 8 9 9 9 9 8 10 9 10 10 12 13 12 13 13 14 12 12 12 9 11
3 3 4 5 5 6 5 4 2 3 5 4 4 4 5 6 6 6 6 6 6 6 7 6 6 6 6 6 6 6 6 6 6 6 6 6 7 6 6 5 5 5 6 6 5 6 7 8 8 10 10 11 11 8 10 11 12 11 12 12 11 13 13
4 6 6 5 4 4 4 4 2 5 4 4 4 5 5 6 5 6 6 6 6 6 6 6 6 6 6 6 6 6 7 7 6 7 6 7 7 7 6 6 5 7 7 6 6 6 6 5 6 8 8 8 10 12 10 10 9 11 9 10 13 13 14
5 5 6 5 5 5 3 3 4 4 4 4 4 4 5 5 6 6 6 6 6 6 6 6 7 7 7 7 6 6 6 6 6 6 6 6 6 7 6 6 6 8 7 7 7 7 7 7 7 8 9 8 8 9 9 9 10 10 9 10 11 11 11
5 6 6 5 5 3 2 4 5 4 4 4 4 4 5 5 5 6 6 6 6 6 6 6 6 6 6 6 6 5 5 5 6 6 6 7 7 8 8 8 7 8 7 7 7 7 7 8 8 9 10 12 11 8 9 10 10 9 11 10 10 11 12
6 5 5 6 4 2 3 5 5 4 4 4 4 4 5 5 5 6 6 7 6 6 6 7 7 6 6 6 6 5 6 5 6 7 6 7 7 7 8 9 7 8 7 7 8 7 8 8 9 9 9 10 11 13 11 10 10 9 11 11 10 11 13
6 7 6 6 4 2 5 5 5 4 4 3 4 4 4 5 5 5 6 6 6 6 7 7 7 6 5 5 5 5 5 5 5 7 6 7 6 6 6 9 7 7 7 6 7 7 7 7 8 8 8 9 10 10 11 12 11 12 12 11 12 13 13
8 8 7 7 5 5 5 4 4 4 4 4 4 4 4 5 5 7 5 6 6 6 7 6 7 7 6 5 5 6 5 5 5 5 6 5 6 6 6 7 7 7 7 6 7 6 7 8 8 8 7 7 7 8 9 11 12 10 12 11 10 12 15
6 7 6 5 5 6 6 5 5 5 5 4 4 4 5 5 5 5 5 6 6 6 6 6 6 6 6 5 5 5 5 5 6 5 5 5 5 6 6 7 7 7 7 7 8 8 9 9 8 8 8 8 7 8 9 9 12 9 9 12 11 12 14
8 8 7 7 6 7 7 6 6 5 5 5 5 5 5 6 5 6 6 6 7 6 6 6 5 5 5 5 5 5 6 6 6 6 5 5 5 6 7 7 8 8 8 8 8 8 7 8 7 7 7 7 7 7 8 8 10 12 9 11 11 13 15
8 8 8 7 7 6 6 6 5 5 5 5 5 5 6 6 7 7 7 7 7 6 6 6 5 5 4 5 5 5 6 6 6 5 5 6 6 6 7 8 8 8 8 7 7 7 7 8 8 7 7 7 7 7 8 9 11 13 10 9 10 11 14
8 7 7 7 7 7 6 6 5 5 6 5 6 7 7 5 6 7 8 8 7 7 7 7 5 4 5 5 5 4 5 6 6 5 5 7 7 6 6 6 7 6 6 6 6 7 6 7 8 8 8 8 8 8 8 9 11 12 15 12 12 11 11
8 8 8 6 7 7 6 6 6 6 6 5 5 6 7 7 8 8 8 8 8 8 8 6 5 5 5 5 6 4 5 5 5 5 6 7 7 5 6 6 7 6 5 6 6 5 6 7 8 9 10 8 9 9 9 9 11 13 14 14 13 14 12
8 8 8 6 7 6 6 5 6 6 6 4 6 5 7 8 8 8 8 8 9 8 8 7 6 5 6 6 6 6 5 5 5 6 7 6 6 6 5 5 6 6 6 6 7 7 7 8 9 9 9 8 8 9 9 9 10 10 11 14 13 14 12
8 8 7 6 7 6 6 6 5 7 5 6 6 5 7 8 8 8 8 9 9 9 8 8 8 8 5 4 5 5 6 6 6 6 6 6 6 5 5 5 7 6 6 6 6 6 7 9 9 9 9 9 9 8 8 9 10 10 11 13 12 11 11
8 8 8 7 7 6 6 6 6 5 7 7 7 7 7 7 8 9 9 9 9 9 9 8 9 9 8 7 5 5 5 5 5 4 4 4 4 5 5 4 6 6 6 6 6 6 7 9 9 9 9 9 9 9 9 9 10 10 11 11 13 13 11
8 7 7 6 6 6 6 6 7 7 6 7 6 7 8 8 7 9 9 8 9 9 9 9 8 9 9 9 8 4 4 4 3 3 3 4 5 4 5 5 6 5 5 6 6 6 7 9 8 9 9 8 8 9 10 10 10 10 11 12 12 12 12
8 7 7 7 7 7 7 6 6 6 6 7 7 8 8 8 7 8 8 8 8 8 8 9 8 8 8 8 8 6 4 3 3 3 4 4 5 5 5 5 4 5 5 5 5 5 8 9 8 9 8 7 8 9 9 9 10 10 11 11 11 12 11
7 8 8 8 7 7 7 6 6 6 6 6 6 7 8 8 8 8 8 8 8 8 7 6 6 6 7 8 7 7 6 3 3 3 3 3 5 5 4 6 4 4 9 8 6 11 11 9 8 9 8 8 9 9 9 8 9 9 10 10 11 11 12
8 8 8 8 7 7 7 6 6 6 7 6 6 7 8 8 8 8 8 8 7 6 6 5 8 11 8 5 6 6 7 3 3 3 3 3 4 3 4 4 6 12 11 9 11 13 14 14 13 10 10 10 10 8 7 9 9 10 10 11 11 12 13
8 9 8 8 7 7 7 6 7 7 6 6 6 7 7 8 7 7 7 7 7 6 6 6 13 13 13 12 7 6 6 2 3 3 3 3 3 2 3 4 3 7 8 7 8 12 14 15 16 17 18 17 13 8 6 9 9 9 10 11 11 12 13
9 9 8 8 8 8 7 7 7 7 6 6 6 6 7 7 7 6 6 7 7 6 6 10 13 14 14 15 11 6 6 2 3 3 3 3 2 3 4 3 4 3 5 5 7 8 12 15 16 18 18 20 17 11 8 7 7 9 10 11 12 12 12
9 8 8 8 7 7 8 8 7 7 7 6 5 5 6 6 6 6 7 7 7 6 6 10 12 14 14 15 15 10 5 3 3 2 3 3 3 4 4 4 4 3 5 10 8 9 10 11 15 17 16 16 16 15 13 11 4 6 8 10 11 12 11
9 9 8 8 7 8 8 8 7 6 6 5 5 5 5 5 5 6 6 6 6 5 6 8 13 14 14 16 16 12 5 2 2 1 4 4 3 5 3 4 3 3 5 5 7 11 10 10 11 11 10 10 10 13 12 12 11 11 9 8 10 12 11
10 9 8 8 8 8 8 7 7 6 5 5 5 5 5 4 5 5 6 6 5 6 6 11 13 15 15 16 18 13 4 3 3 2 4 4 3 5 3 3 3 4 5 5 7 11 10 10 10 9 10 10 10 11 9 8 9 8 8 8 9 11 10
9 9 9 8 8 8 6 6 6 5 5 5 5 5 4 4 4 5 5 6 5 6 6 12 13 14 15 17 16 9 5 5 4 5 4 4 4 3 3 3 3 3 3 5 10 14 12 10 10 11 11 10 11 10 9 10 13 12 9 9 10 11 9
9 9 9 9 8 7 7 7 5 4 5 5 5 5 4 4 3 3 4 5 6 5 5 8 11 13 14 15 12 8 5 6 5 6 6 3 3 3 2 2 2 2 4 7 12 14 15 14 10 11 11 11 11 10 10 10 13 15 15 16 19 17 13
9 9 9 9 8 7 6 5 5 5 5 5 5 5 5 5 4 4 4 4 4 6 4 5 9 10 12 14 12 8 6 6 6 7 7 7 5 3 2 6 4 2 7 9 13 14 17 12 10 11 11 12 12 12 12 11 10 11 17 16 17 13 14
9 9 9 8 7 7 6 5 5 4 4 4 5 5 5 5 5 4 4 3 4 6 4 4 7 8 9 10 10 7 5 6 6 7 6 7 7 4 1 4 4 9 9 11 14 15 17 14 10 10 11 11 11 12 13 14 14 14 13 11 8 9 11
8 9 9 7 6 6 5 5 4 4 4 4 4 4 4 4 5 5 4 3 3 3 4 3 4 5 6 7 8 7 5 5 7 6 7 7 7 5 5 5 3 10 14 14 16 17 17 18 13 11 10 9 10 14 14 14 14 14 12 10 11 11 12
9 8 7 7 6 6 5 4 4 4 3 4 4 4 4 3 3 3 4 4 4 3 3 4 3 3 3 4 6 4 4 4 4 5 6 7 6 6 6 5 5 10 14 16 18 19 19 18 17 10 9 8 10 15 17 12 14 15 10 12 11 11 12
8 7 7 6 6 5 4 3 3 3 4 4 4 4 4 4 4 3 3 3 3 5 3 5 3 2 2 5 5 4 2 3 4 5 6 6 6 6 6 6 6 10 16 19 20 20 19 18 19 10 10 14 18 20 15 11 9 10 11 11 11 11 13
7 6 6 6 6 6 4 4 4 5 5 4 3 3 2 3 3 3 4 4 3 7 5 4 2 2 1 5 5 5 6 4 7 5 5 6 6 6 6 7 8 14 17 19 19 20 18 18 13 10 16 17 18 22 15 7 11 10 11 11 11 12 14
7 7 7 7 6 5 4 4 4 4 5 5 5 4 4 4 3 4 4 4 4 6 6 4 2 5 2 4 6 6 7 6 6 5 5 5 4 6 7 8 10 16 18 19 20 18 16 13 11 17 16 16 17 15 9 10 10 11 11 11 12 13 13
Wind_Direction
81 87 77 66 62 63 69 66 54 39 20 27 26 26 26 21 19 26 28 24 19 12 32 38 26 16 15 40 31 40 28 30 24 6 2 20 0 352 353 352 344 343 345 343 338 359 331 326 324 332 336 342 339 331 340 349 337 338 337 324 311 303 255
118 122 114 112 101 87 82 62 54 42 52 43 28 21 24 30 24 26 35 36 30 24 36 35 26 30 39 34 36 41 29 34 6 32 30 16 0 4 346 0 350 349 340 350 14 7 358 334 321 333 330 333 325 328 345 333 328 331 329 322 326 314 294
144 131 131 138 126 106 75 63 46 25 47 55 42 21 17 38 30 26 37 43 32 32 36 33 27 36 45 38 40 43 37 30 26 40 33 23 6 9 6 351 354 355 7 9 12 1 349 351 336 328 334 331 333 336 342 340 341 333 320 319 317 314 335
138 142 141 141 128 101 89 85 80 39 55 57 48 27 23 36 33 32 34 45 39 31 37 38 27 37 47 41 41 46 48 40 35 41 39 34 18 17 7 4 10 19 21 8 1 357 353 345 339 332 330 340 338 325 336 340 338 328 333 340 329 347 8
144 108 97 90 84 91 100 104 101 87 63 53 50 41 32 33 35 32 33 40 40 33 38 42 33 34 53 42 41 44 46 41 39 43 38 33 25 17 9 360 10 31 24 15 2 358 360 348 341 332 333 336 324 320 321 327 324 331 339 328 343 355 351
65 93 87 77 65 81 81 76 86 76 68 57 39 40 44 41 35 37 36 35 38 35 36 44 36 34 49 49 41 39 45 38 31 42 38 33 26 26 5 350 4 33 21 4 356 10 356 347 344 333 332 329 322 320 327 331 331 331 328 339 353 345 344
58 65 77 80 70 70 92 117 90 81 78 62 53 46 42 46 46 44 42 43 42 41 36 41 43 36 43 45 38 40 37 49 33 37 41 31 33 29 14 359 26 37 13 7 10 3 354 354 345 347 332 325 321 320 321 330 332 328 335 348 341 339 338
67 63 60 67 82 89 61 79 78 72 67 65 55 45 44 50 54 51 48 44 41 41 41 39 45 43 43 45 36 29 39 42 41 35 31 32 29 26 26 12 28 36 11 14 12 0 357 356 348 349 341 333 331 330 327 326 329 331 330 329 339 336 345
85 80 80 74 71 109 108 85 80 78 77 73 67 62 49 48 50 56 52 47 41 39 41 43 43 43 40 48 38 26 38 30 45 36 35 27 27 25 34 25 24 32 11 8 17 359 3 0 360 352 348 338 338 329 331 328 331 322 338 330 337 346 345
97 96 99 116 149 133 85 86 86 84 81 79 84 69 64 56 56 57 55 50 42 39 39 41 41 41 38 41 43 32 33 34 43 41 34 32 24 17 45 36 25 27 7 11 20 6 3 9 4 356 349 347 341 331 330 327 328 326 332 349 334 331 337
125 131 138 140 140 117 107 96 87 87 81 77 74 73 68 62 54 55 56 54 50 42 40 38 43 40 35 29 36 32 30 32 36 50 37 38 23 20 42 44 25 30 4 15 15 1 10 12 3 352 345 343 342 336 331 322 316 319 320 330 328 322 327
120 124 128 122 104 100 98 93 88 81 74 65 67 71 71 67 60 55 58 58 50 49 41 36 40 46 39 31 27 32 23 41 35 39 45 36 34 24 37 42 32 27 9 20 7 7 17 13 356 348 342 347 344 338 331 321 312 314 322 318 321 322 321
117 114 112 112 113 106 99 97 92 84 79 74 67 65 62 60 65 61 46 55 58 51 48 38 34 41 49 41 26 29 26 37 44 33 38 44 36 36 34 39 36 27 16 24 11 9 9 358 353 342 345 342 336 332 327 318 309 306 319 315 318 318 323
121 115 103 94 91 87 86 86 83 82 83 75 73 69 68 65 53 53 56 48 48 47 46 42 34 31 40 47 37 36 34 34 40 39 31 39 37 39 38 40 37 28 24 22 11 2 3 358 347 339 340 338 331 331 328 322 314 312 312 320 320 322 322
108 109 109 106 101 96 91 84 82 77 73 72 71 65 62 59 66 60 52 48 46 43 41 38 34 30 34 41 46 38 38 39 35 36 44 36 42 27 38 47 37 41 25 17 18 3 358 351 346 341 341 337 331 329 329 325 322 319 318 324 320 321 315
112 109 105 104 102 104 103 100 95 87 76 68 69 75 67 59 55 57 57 51 44 40 37 32 26 34 34 40 38 38 43 42 34 36 42 45 39 32 30 43 43 24 25 19 13 354 356 354 347 343 336 333 329 328 334 336 328 321 319 319 320 319 322
109 107 105 98 95 88 85 83 87 90 92 88 78 69 71 69 61 53 55 53 46 41 35 24 23 25 39 39 37 30 38 37 38 38 42 39 37 34 26 37 42 28 26 16 1 356 355 353 345 340 332 330 331 335 337 336 327 319 319 318 322 321 320
106 103 100 100 99 97 95 93 91 85 79 73 66 70 72 72 67 60 53 50 50 44 35 28 19 9 14 48 37 38 29 42 35 38 41 32 34 24 20 39 48 27 20 15 354 353 354 348 343 337 333 335 336 339 334 328 324 319 318 316 316 317 318
113 111 107 104 102 102 99 95 91 90 89 88 83 74 67 57 61 62 56 53 49 47 41 31 21 10 359 8 50 41 37 49 52 35 43 50 36 34 5 26 53 34 15 10 354 352 358 345 341 338 336 340 338 334 327 324 323 320 318 316 320 321 322
117 113 108 107 109 103 99 98 96 94 97 99 97 89 78 71 63 62 59 53 49 45 45 36 24 9 2 359 352 37 37 40 47 50 34 54 36 38 18 12 47 28 19 1 9 11 354 349 341 338 337 332 328 327 327 328 326 325 325 323 321 317 315
119 115 110 104 96 93 90 85 82 81 83 80 82 87 87 84 76 66 61 58 51 50 44 36 23 10 2 354 347 344 57 23 38 28 39 45 47 33 26 7 43 27 29 15 40 12 3 347 340 334 329 319 320 319 323 327 331 331 327 323 320 321 324
114 114 113 108 103 103 103 104 100 90 77 71 71 81 88 86 82 77 68 58 54 47 42 33 26 4 352 351 349 340 341 32 29 36 31 45 57 40 20 9 18 52 18 33 54 23 0 346 340 333 321 318 312 315 316 323 329 324 324 323 322 326 325
120 115 115 114 111 107 102 94 92 90 87 83 78 78 83 81 77 77 73 67 61 51 36 30 6 17 22 2 334 341 324 349 38 20 21 42 66 58 33 31 359 7 21 16 31 15 354 344 340 328 318 315 311 306 308 321 324 324 323 326 332 331 327
127 121 114 118 123 115 103 96 91 92 90 89 89 89 85 82 79 77 75 68 63 53 35 16 5 11 4 9 2 335 319 327 32 21 10 25 55 43 42 39 9 4 5 14 21 11 352 345 339 335 325 314 305 291 302 320 322 332 337 334 330 326 320
124 125 126 120 116 118 118 113 108 104 103 99 96 95 90 90 88 83 77 70 59 51 38 11 11 7 6 359 4 340 312 323 33 36 337 8 21 55 41 20 14 13 359 6 34 4 351 342 339 333 325 315 307 295 301 311 327 345 340 331 323 320 317
129 125 120 117 116 114 108 106 101 99 97 96 91 88 96 103 103 95 82 69 62 49 34 14 10 12 5 0 354 347 313 331 24 33 350 1 6 55 46 10 10 360 3 358 25 1 349 341 336 330 320 321 325 331 333 330 352 343 324 320 315 312 321
125 121 121 120 116 111 109 107 108 102 100 93 92 97 96 94 96 89 82 79 67 51 37 7 15 11 8 359 352 339 287 310 17 345 27 350 344 80 43 22 360 354 8 5 22 357 344 339 333 326 329 331 326 323 329 326 324 315 313 310 307 306 313
126 128 126 119 113 110 113 120 120 121 118 115 112 104 93 84 83 87 88 86 77 54 32 17 18 13 6 2 351 341 302 355 359 9 54 350 345 85 39 27 1 22 10 12 2 345 340 334 327 325 328 331 324 314 315 321 316 312 307 305 300 296 300
128 125 121 120 121 121 120 110 104 101 96 93 91 95 95 93 93 99 102 95 85 62 35 20 18 14 9 5 353 340 346 352 7 340 48 9 344 76 41 34 41 41 13 13 348 340 334 334 328 328 328 326 321 312 313 317 309 300 290 292 295 290 290
129 126 127 126 122 119 117 115 115 114 110 105 98 89 90 80 75 78 89 102 95 75 49 21 21 14 9 7 359 338 344 9 351 358 347 12 334 74 67 66 55 62 11 7 344 338 332 339 329 328 325 322 318 311 315 315 311 305 302 299 295 283 279
132 130 128 126 125 128 124 117 118 122 119 125 120 111 102 96 86 74 63 62 84 100 72 40 34 18 8 3 359 343 346 13 357 358 346 333 341 96 78 76 92 44 17 355 338 334 331 334 330 324 322 321 316 313 314 316 316 317 312 303 294 290 314
132 132 128 125 129 130 130 129 124 122 124 129 137 139 126 119 115 103 92 81 57 104 106 71 44 29 12 360 357 343 356 12 2 352 338 330 317 20 134 136 76 35 14 340 334 332 327 329 324 320 319 315 310 312 315 318 321 316 315 311 301 318 321
127 124 125 128 130 120 117 126 131 135 151 150 134 121 129 127 129 129 131 113 100 91 107 91 62 44 19 352 353 344 352 17 1 345 336 329 332 349 353 351 358 15 350 333 330 328 325 322 321 314 313 309 307 313 316 320 314 312 306 314 324 328 325
121 122 127 127 123 126 133 138 155 165 145 114 109 109 120 133 125 139 147 151 138 113 98 122 103 56 12 341 333 356 343 10 356 342 330 334 337 331 342 351 342 336 330 329 325 323 318 315 311 310 302 298 300 302 308 315 310 307 322 327 327 331 329
122 125 125 126 132 121 123 139 132 112 93 100 120 150 170 162 157 145 151 155 157 128 94 79 146 151 347 329 312 303 321 332 331 324 325 335 322 324 341 340 337 323 325 322 319 316 313 309 307 306 293 290 300 305 312 304 309 327 328 328 329 334 331
125 129 130 131 125 127 139 142 128 110 122 141 155 160 152 152 165 164 168 166 150 136 129 104 93 131 189 321 328 300 273 268 304 299 316 321 314 329 347 328 321 318 317 314 312 310 306 306 306 308 309 313 314 316 312 328 334 331 332 332 335 336 332
128 129 134 128 129 138 143 128 130 138 161 160 160 169 159 188 172 169 169 147 132 132 149 133 156 106 89 354 353 340 327 289 280 284 309 293 325 345 327 319 313 310 309 306 305 303 300 300 325 329 329 321 325 324 331 337 338 339 336 339 338 335 333